Location: *
(47.6569°N, 7.4256°E)
Time: 23:29:07
(UTC+00:00)

Daily predictions for brighter satellites

Satellite Brightness Start Highest point End
(mag) Time Altitude Azimuth Time Altitude Azimuth Time Altitude Azimuth
CZ-4B R/B 3.2 16:02:06 10° SSE 16:07:27 88° ENE 16:12:58 10° NNW
IRS-1C Rocket 4.5 16:04:02 10° SE 16:08:59 43° ENE 16:13:56 10° N
Cosmos 2360 Rocket 4.0 16:09:30 10° W 16:13:59 23° NW 16:18:29 10° N
Cosmos 2278 Rocket 2.8 16:08:25 10° NNW 16:14:03 66° WSW 16:19:38 10° SSE
STARLINK-52 3.6 16:10:45 10° SW 16:14:11 54° SE 16:17:38 10° ENE
USA 215 3.6 16:08:20 10° ENE 16:14:47 57° SE 16:21:12 10° SW
STARLINK-67 3.8 16:16:19 10° NW 16:18:45 26° N 16:21:09 10° ENE
Helios 1A Rocket 3.1 16:15:47 10° S 16:19:53 77° WSW 16:23:59 10° NNW
STARLINK-29 3.3 16:18:48 10° SW 16:22:18 69° SSE 16:25:48 10° ENE
Cosmos 2369 Rocket 3.4 16:19:15 10° N 16:23:33 22° NE 16:27:50 10° E
Cosmos 1862 Rocket 3.5 16:20:36 10° S 16:24:58 82° E 16:29:25 10° N
RESURS DK-1 3.9 16:22:04 10° WSW 16:25:47 32° NW 16:29:32 10° NNE
STARLINK-46 3.9 16:25:33 10° WNW 16:27:53 25° N 16:29:57 12° NE
Cosmos 1703 Rocket 4.3 16:24:52 10° SSE 16:28:54 34° E 16:32:57 10° NNE
SMAP 3.2 16:25:39 10° SSE 16:30:11 54° ENE 16:34:44 10° N
Cosmos 1743 3.8 16:28:31 10° NNE 16:31:44 24° ENE 16:34:56 10° SE
CORIOLIS 4.3 16:26:42 10° SE 16:31:57 52° ENE 16:37:14 10° N
SL-16 R/B 2.8 16:26:55 10° S 16:32:09 39° ESE 16:37:25 10° NE
Cosmos 1536 2.8 16:29:58 10° N 16:34:01 86° E 16:38:00 10° S
Feng Yun 1-1 Rocket 4.2 16:28:47 10° SSE 16:34:05 63° ENE 16:39:28 10° N
Sich 1 Rocket 4.4 16:32:34 10° N 16:36:25 29° ENE 16:40:14 10° SE
CZ-4B R/B 3.5 16:35:23 10° N 16:38:24 27° WNW 16:41:21 10° SW
Cosmos 2237 Rocket 2.4 16:33:54 10° SSW 16:39:35 77° WNW 16:45:19 10° NNE
Lacrosse 5 rocket 2.5 16:37:44 10° W 16:41:38 34° NNW 16:44:56 12° NE
ALOS 4.1 16:38:18 10° SSW 16:42:33 35° W 16:46:51 10° NNW
Cosmos 1812 3.5 16:41:07 10° SSW 16:44:53 53° WNW 16:48:43 10° N
Cosmos 1943 Rocket 2.8 16:41:23 10° NNW 16:46:27 33° NE 16:51:27 10° ESE
Cosmos 2219 Rocket 3.7 16:41:30 10° WSW 16:46:29 32° NW 16:51:32 10° NNE
SL-4 R/B 2.3 16:43:03 10° WNW 16:46:40 45° N 16:49:31 17° ENE
NOSS 3-1 (C) 4.5 16:40:43 10° NW 16:47:20 39° NNE 16:54:55 10° E
STARLINK-43 4.4 16:44:24 10° SSW 16:47:42 31° SE 16:50:01 16° E
Okean O Rocket 3.2 16:44:20 10° SSW 16:48:22 38° W 16:52:26 10° NNW
Cosmos 2333 Rocket 3.7 16:43:31 10° WSW 16:48:36 31° NW 16:53:44 10° NNE
USA 267 3.2 16:43:12 10° ESE 16:49:46 82° NNE 16:56:20 10° NW
Cosmos 1140 Rocket 4.2 16:45:17 10° SSE 16:49:48 32° ESE 16:53:37 14° NE
Abrixas rocket 4.1 16:47:57 10° S 16:49:53 16° SE 16:51:18 12° ESE
Okean 1 4.0 16:50:04 10° SSE 16:53:39 33° E 16:56:45 13° NNE
Envisat 3.1 16:50:25 10° SE 16:55:20 52° ENE 17:00:16 10° N
Cosmos 292 Rocket 4.5 16:51:25 10° NNW 16:56:12 59° WSW 17:00:58 10° S
Cosmos 2242 Rocket 3.8 16:52:18 10° SSW 16:56:52 77° W 17:01:29 10° N
Aureole 1 Rocket 2.3 16:54:40 10° SSW 16:57:42 80° WNW 17:00:55 12° NNE
Cosmos 1092 Rocket 4.0 16:51:36 10° S 16:57:53 77° E 17:04:08 10° NNE
USA 229 DEB 4.3 16:51:38 10° NW 16:58:22 42° NE 17:04:59 12° ESE
USA 229 4.3 16:51:44 10° NW 16:58:27 42° NE 17:05:00 12° ESE
Okean 1-7 3.1 16:54:17 10° S 16:58:33 57° E 17:02:52 10° NNE
Cosmos 1908 Rocket 3.7 16:55:02 10° NNW 16:59:25 76° W 17:03:45 10° S
CSL-04 Rocket 4.3 16:59:21 10° SE 17:03:58 32° ENE 17:08:38 10° N
Cosmos 407 Rocket 3.5 16:58:51 10° S 17:03:58 61° ESE 17:08:45 12° NNE
Cosmos 405 Rocket 4.2 17:01:14 10° NNE 17:09:24 - SE 17:02:41 18° NE
Cosmos 1300 Rocket 4.4 17:04:05 10° NNE 17:07:44 26° ENE 17:11:22 10° SE
COSMO-SKYMED 1 3.2 17:05:20 18° NE 17:07:54 33° E 17:11:50 10° SSE
YAOGAN 3 4.5 17:06:48 10° SSE 17:11:09 76° ENE 17:15:31 10° N
YAOGAN 1 3.2 17:08:37 10° SE 17:12:26 32° ENE 17:16:18 10° N
CZ-4 R/B 1.7 17:10:00 10° SE 17:13:33 36° ENE 17:17:06 10° N
Okean-O 2.5 17:09:20 10° SSE 17:13:45 80° ENE 17:18:13 10° NNW
Cosmos 1441 Rocket 3.6 17:12:22 10° NNW 17:16:09 63° W 17:19:51 10° S
H-2A R/B 3.6 17:14:37 10° S 17:18:12 49° W 17:21:48 10° NNW
FALCON 9 DEB 3.6 17:15:18 10° W 17:18:43 51° NNW 17:19:57 33° NE
NOAA 12 4.1 17:15:25 10° SSE 17:20:43 84° WSW 17:26:03 10° NNW
Cosmos 2297 4.3 17:17:11 10° NNW 17:22:47 60° WSW 17:28:19 10° S
Cosmos 921 Rocket 3.7 17:19:25 10° NNW 17:23:38 56° WSW 17:27:54 10° S
CSL-04 Debris 4.3 17:20:27 10° SE 17:25:38 48° ENE 17:30:50 10° N
Cosmos 1975 2.7 17:23:59 10° N 17:27:58 64° ENE 17:31:57 10° SSE
SeaSat 1 4.4 17:29:56 14° NNE 17:29:56 14° NNE 17:31:18 10° N
Okean 3 3.8 17:25:44 10° SSE 17:29:36 38° E 17:29:51 38° E
Cosmos 1428 Rocket 4.4 17:25:13 10° S 17:31:25 86° E 17:37:43 10° N
S3M 4.0 17:25:26 10° N 17:31:32 56° ENE 17:37:32 10° SSE
Lacrosse 4 Rocket 3.7 17:30:42 10° N 17:31:11 11° N 17:31:11 11° N
Meteor 1-12 Rocket 4.4 17:30:23 10° N 17:36:05 50° ENE 17:41:38 10° SSE
Cosmos 2266 Rocket 4.4 17:31:14 10° SSE 17:37:03 39° E 17:40:17 23° NE
Cosmos 1515 4.2 17:34:19 10° SSE 17:37:12 39° SE 17:37:12 39° SE
Lacrosse 5 2.7 17:33:59 10° S 17:38:25 31° SE 17:39:00 30° ESE
Ariane Rocket 4.4 17:40:51 21° NNE 17:40:51 21° NNE 17:42:59 10° N
ATLAS 2AS CENTAUR R/B 4.4 17:34:25 10° WNW 17:40:55 26° NNW 17:45:11 17° NNE
YAOGAN 6 2.6 17:37:46 10° S 17:41:20 81° W 17:44:58 10° NNW
Cosmos 1553 Rocket 4.0 17:35:50 10° N 17:42:15 85° E 17:48:41 10° S
Cosmos 2151 Rocket 3.6 17:38:28 10° N 17:42:48 52° ENE 17:47:05 10° SSE
STARLINK-60 4.1 17:40:41 10° W 17:43:50 36° N 17:43:50 36° N
Uosat 12 SS-18 rocket 4.0 17:39:19 10° NW 17:44:09 85° NE 17:46:22 29° SE
Cosmos 1867 4.2 17:41:08 10° NW 17:46:30 58° WSW 17:51:48 10° SSE
Cosmos 1763 Rocket 4.3 17:43:05 10° N 17:46:31 30° NNE 17:46:31 30° NNE
STARLINK-48 4.1 17:44:06 10° SSW 17:47:34 40° SSE 17:47:34 40° SSE
Meteor 2-9 Rocket 4.2 17:42:58 10° N 17:48:53 85° E 17:54:40 10° SSE
CZ-4C R/B 2.7 17:45:01 10° S 17:49:23 35° ESE 17:49:23 35° ESE
STARLINK-52 3.9 17:48:08 10° W 17:51:25 42° NNW 17:51:25 42° NNW
Cosmos 2026 Rocket 4.4 17:46:18 10° SSW 17:52:17 60° WNW 17:58:19 10° N
NOAA 11 4.1 17:47:12 10° SSE 17:52:35 62° ENE 17:58:00 10° N
SKYMED 2 3.6 17:53:59 30° N 17:56:09 81° WNW 18:00:29 10° SSW
Cosmos 1943 3.6 17:51:48 10° S 17:56:43 41° ESE 17:56:43 41° ESE
USA 215 3.5 17:54:37 31° NE 17:57:51 60° NNW 18:04:16 10° WSW
ATLAS 5 CENTAUR R/B 3.4 17:57:16 10° W 17:58:07 17° WNW 17:58:07 17° WNW
STARLINK-29 4.3 17:56:22 10° W 17:59:16 37° NNW 17:59:16 37° NNW
Meteor 1-13 Rocket 4.4 17:55:27 10° SSE 18:00:23 47° ESE 18:00:23 47° ESE
Cosmos 676 Rocket 4.0 17:59:04 10° SSW 18:04:15 80° WNW 18:06:19 38° NNE
Cosmos 1656 Rocket 4.1 18:01:41 10° NNW 18:06:00 43° NNE 18:06:00 43° NNE
Cosmos 2369 Rocket 2.2 18:02:38 10° NNW 18:08:18 84° WSW 18:13:17 14° SSE
BREEZE-M R/B 3.2 18:04:20 10° WNW 18:08:07 53° WSW 18:08:07 53° WSW
Okean 2 Rocket 3.7 18:05:01 10° NNW 18:09:25 57° W 18:13:50 10° S
Cosmos 1954 Rocket 4.0 18:05:10 10° SSW 18:10:20 76° WNW 18:12:08 42° N
Cosmos 2221 Rocket 4.2 18:10:42 10° SSW 18:15:05 55° WNW 18:16:58 31° NNW
SL-16 R/B 3.4 18:10:58 10° WSW 18:16:16 39° NW 18:19:41 20° N
Cosmos 2315 Rocket 3.9 18:12:10 10° N 18:18:28 62° ENE 18:18:41 61° E
USA 116 4.4 18:17:14 39° N 18:19:14 78° WNW 18:24:10 10° SSW
Cosmos 883 Rocket 4.3 18:13:05 10° N 18:19:27 77° E 18:25:43 10° SSE
IRIDIUM 104 4.2 18:14:22 10° S 18:19:34 90° SW 18:20:58 51° N
Lacrosse 5 rocket 3.4 18:18:32 10° NW 18:20:34 19° NNW 18:20:34 19° NNW
Cosmos 1603 3.6 18:17:33 10° SSW 18:23:17 84° ESE 18:23:46 75° NE
Cosmos 2237 Rocket 4.4 18:20:47 10° W 18:24:38 18° NW 18:28:16 11° N
SL-4 R/B 3.2 18:22:39 10° WNW 18:25:08 38° WNW 18:25:08 38° WNW
IRIDIUM 114 4.4 18:23:31 10° S 18:28:43 76° W 18:30:06 50° NNW
Cosmos 1943 Rocket 3.0 18:25:00 10° NW 18:30:24 48° WSW 18:35:44 10° S
Meteor 2-8 Rocket 4.2 18:27:26 10° N 18:33:32 85° E 18:34:17 70° SSE
NOSS 3-1 (C) 4.1 18:31:27 10° NW 18:38:58 79° SW 18:43:01 35° SSE
Cosmos 468 Rocket 4.5 18:37:16 10° NNW 18:41:23 55° NW 18:41:23 55° NW
COSMO-SKYMED 1 4.4 18:42:33 23° NW 18:43:58 28° WNW 18:47:40 10° SW
Meteor 2-4 Rocket 4.2 18:39:25 10° SSW 18:45:11 59° WNW 18:47:11 39° NNW
YAOGAN 1 4.5 18:44:46 10° SSW 18:48:32 29° W 18:52:20 10° NW
CZ-4 R/B 3.9 18:45:51 10° SW 18:48:43 20° W 18:51:35 10° NW
USA 229 DEB 4.1 18:42:36 10° NW 18:49:47 66° SW 18:52:31 41° S
USA 229 4.1 18:42:42 10° NW 18:49:52 67° SW 18:52:32 42° S
Gbstr 26 Del rocket 4.2 18:43:32 10° SW 18:49:19 58° SSW 18:49:19 58° SSW
NOSS 3-1 (A) 3.9 18:47:55 10° NW 18:55:25 87° SW 18:56:30 71° SSE
Cosmos 2344 4.4 18:48:59 10° NW 18:58:40 85° SW 19:05:28 34° SSE
Lacrosse 5 3.8 19:16:05 10° WSW 19:18:13 25° WSW 19:18:13 25° WSW
ATLAS 2AS CENTAUR R/B 4.4 19:27:56 10° NW 19:32:36 25° N 19:32:36 25° N
CZ-4C R/B 4.2 19:32:44 10° WSW 19:34:36 22° WSW 19:34:36 22° WSW
USA 215 4.5 19:41:58 34° NW 19:41:58 34° NW 19:46:14 10° WNW
